GW0743 Weather Reports


time (UTC)temp
F
wind
direction
speed
knots
gust
knots
rain 1hr
in
rain 24hr
in
rain mn
in
humidity
%
barometer
mb
20260906180027 70 115 2.6 5.2 0.00 0.01 0.01 93 1019.7
20260906174530 70 87 4.3 6.1 0.00 0.01 0.01 93 1019.7
20260906173009 70 127 2.6 5.2 0.00 0.01 0.01 93 1020.2
20260906171517 70 128 2.6 4.3 0.00 0.01 0.01 93 1020.3
20260906170025 69 108 1.7 4.3 0.00 0.01 0.01 93 1020.3
20260906164531 69 120 2.6 6.1 0.00 0.02 0.01 94 1020.2
20260906163034 69 147 2.6 6.1 0.00 0.02 0.01 94 1020.4
20260906161515 69 142 4.3 7.8 0.00 0.02 0.01 94 1020.3
20260906160033 69 126 6.1 9.6 0.00 0.02 0.01 94 1020.0
20260906154540 69 128 3.5 7.0 0.00 0.02 0.01 94 1020.1
20260906153038 69 127 6.1 10.4 0.00 0.02 0.01 95 1020.0
20260906151531 68 120 6.1 10.4 0.00 0.02 0.01 95 1019.9
20260906150020 68 117 6.1 9.6 0.00 0.02 0.01 95 1019.9
20260906144523 68 144 6.1 8.7 0.00 0.02 0.01 96 1019.9
20260906143034 68 156 6.1 9.6 0.00 0.02 0.01 96 1020.0
20260906141533 68 142 5.2 10.4 0.00 0.02 0.01 96 1020.1
20260906140012 68 134 6.1 10.4 0.00 0.02 0.01 96 1020.0
20260906134519 68 108 3.5 8.7 0.00 0.02 0.01 96 1020.1
20260906133004 68 138 2.6 8.7 0.00 0.02 0.01 97 1020.1
20260906131507 67 139 5.2 8.7 0.00 0.02 0.01 97 1020.0
20260906130028 67 122 2.6 6.1 0.00 0.02 0.01 97 1019.8
20260906124518 67 127 4.3 7.8 0.00 0.02 0.01 97 1019.6
20260906123032 67 135 4.3 7.8 0.00 0.02 0.01 97 1019.3
20260906121505 67 132 4.3 8.7 0.00 0.02 0.01 97 1019.1
20260906120008 67 124 4.3 8.7 0.00 0.02 0.01 97 1018.9
20260906114512 67 141 2.6 6.1 0.00 0.02 0.01 97 1018.8
20260906113022 67 115 3.5 7.0 0.00 0.02 0.01 97 1018.7
20260906111534 67 128 3.5 6.1 0.01 0.02 0.01 97 1018.8
20260906110012 67 105 2.6 7.0 0.01 0.02 0.01 97 1018.9
20260906104514 67 112 0.9 4.3 0.01 0.02 0.01 97 1018.9
20260906103012 67 135 3.5 6.1 0.01 0.02 0.01 97 1018.9
20260906101520 66 143 3.5 6.1 0.00 0.01 0.00 97 1018.8
20260906100027 65 112 0.0 1.7 0.00 0.01 0.00 97 1018.6
20260906094512 65 96 0.0 1.7 0.00 0.01 0.00 96 1018.3
20260906093011 66 100 0.0 1.7 0.00 0.01 0.00 97 1018.4
20260906091525 65 104 0.0 1.7 0.00 0.01 0.00 97 1018.4
20260906090025 65 121 0.0 0.9 0.00 0.01 0.00 97 1018.3
20260906084530 65 106 0.9 1.7 0.00 0.01 0.00 96 1017.9
20260906083018 66 105 0.0 0.9 0.00 0.01 0.00 96 1017.9
20260906081531 66 107 0.0 1.7 0.00 0.01 0.00 96 1018.0
20260906080019 67 106 0.0 1.7 0.00 0.01 0.00 96 1018.0
20260906074524 67 105 0.0 1.7 0.00 0.01 0.00 96 1018.0
20260906073033 67 103 0.9 1.7 0.00 0.01 0.00 96 1018.0
20260906071532 67 147 0.9 2.6 0.00 0.01 0.00 96 1018.1
20260906070018 68 106 0.0 1.7 0.00 0.01 0.00 96 1018.2
20260906064533 68 108 1.7 3.5 0.00 0.01 0.00 96 1018.2
20260906063030 68 101 0.9 3.5 0.00 0.01 0.00 96 1018.3
20260906061534 69 115 1.7 4.3 0.00 0.01 0.00 96 1018.3
20260906060034 69 107 1.7 4.3 0.00 0.01 0.00 96 1018.3
20260906054518 68 115 2.6 4.3 0.00 0.01 0.00 97 1018.3
20260906053030 68 103 0.9 1.7 0.00 0.01 0.00 96 1018.4
20260906051534 68 104 0.0 1.7 0.00 0.01 0.00 96 1018.3
20260906050042 68 117 0.0 1.7 0.00 0.01 0.00 97 1018.0
20260906044515 68 72 0.0 0.0 0.00 0.01 0.01 96 1018.0
20260906043023 68 72 0.0 0.9 0.00 0.01 0.01 96 1017.9
20260906041504 68 110 0.0 0.0 0.00 0.01 0.01 96 1017.9
20260906040018 69 110 0.0 0.9 0.00 0.01 0.01 96 1017.8
20260906034510 69 110 0.0 0.0 0.00 0.01 0.01 96 1017.8
20260906033024 69 110 0.0 0.0 0.00 0.01 0.01 96 1017.9
20260906031526 69 110 0.0 0.0 0.00 0.01 0.01 96 1017.9
20260906030016 70 110 0.0 0.0 0.00 0.01 0.01 96 1018.0
20260906024510 70 110 0.0 0.0 0.00 0.01 0.01 96 1018.1
20260906023018 70 110 0.0 0.9 0.00 0.01 0.01 95 1017.9
20260906021523 71 110 0.0 0.9 0.00 0.01 0.01 95 1017.9
20260906020030 71 110 0.0 0.0 0.00 0.01 0.01 95 1017.5
20260906014508 72 110 0.0 0.0 0.00 0.01 0.01 95 1017.3
20260906013018 72 110 0.0 0.9 0.00 0.01 0.01 94 1017.1
20260906011518 73 113 0.0 0.0 0.00 0.01 0.01 93 1017.0
20260906010023 73 113 0.0 0.9 0.00 0.01 0.01 92 1017.1
20260906004528 74 113 0.0 0.0 0.00 0.01 0.01 92 1016.9
20260906003018 74 114 0.0 0.9 0.00 0.01 0.01 91 1016.8
20260906001514 75 122 0.9 0.9 0.00 0.01 0.01 90 1016.7
20260906000024 76 113 0.9 3.5 0.00 0.01 0.01 89 1016.7
20260905234528 77 112 1.7 4.3 0.00 0.01 0.01 87 1016.7
20260905233032 77 103 1.7 4.3 0.00 0.01 0.01 86 1016.7
20260905231509 78 119 3.5 5.2 0.00 0.01 0.01 85 1016.5
20260905230026 79 116 3.5 6.1 0.00 0.01 0.01 82 1016.3
20260905224525 79 82 4.3 7.0 0.00 0.01 0.01 82 1016.3
20260905223030 80 82 2.6 7.0 0.00 0.01 0.01 81 1016.0
20260905221531 80 125 5.2 8.7 0.00 0.01 0.01 81 1016.1
20260905220028 80 117 3.5 8.7 0.00 0.01 0.01 84 1015.9
20260905214519 80 97 5.2 7.8 0.00 0.01 0.01 85 1015.8
20260905213025 80 125 6.1 8.7 0.00 0.01 0.01 85 1016.0
20260905211530 80 134 2.6 7.8 0.00 0.01 0.01 87 1016.2
20260905210041 80 94 0.9 7.0 0.00 0.01 0.01 87 1016.2
20260905204514 79 88 2.6 8.7 0.00 0.01 0.01 87 1016.2
20260905203029 80 92 3.5 7.0 0.00 0.01 0.01 87 1016.1
20260905201535 79 106 2.6 7.0 0.00 0.01 0.01 88 1016.3
20260905200009 79 117 3.5 7.0 0.00 0.01 0.01 89 1016.3
20260905194512 79 129 3.5 6.1 0.00 0.01 0.01 89 1016.5
20260905193030 79 50 2.6 7.0 0.00 0.01 0.01 88 1016.5
20260905191505 79 68 3.5 9.6 0.00 0.01 0.01 88 1016.2
20260905190012 79 67 3.5 14.8 0.00 0.01 0.01 89 1015.9
20260905184515 78 51 4.3 9.6 0.00 0.01 0.01 91 1015.9
20260905183032 77 76 6.1 9.6 0.00 0.01 0.01 90 1016.0
20260905181521 77 69 3.5 8.7 0.00 0.01 0.01 92 1017.6